SES-7 (PROTOSTAR 2)

Last updated on Thu Oct 30 2025 00:02:48 GMT+0000 (Coordinated Universal Time)

1 34941U 09027A 25302.55204690 -.00000335 00000+0 00000+0 0 9992 2 34941 0.0542 72.5669 0002168 144.3040 128.2869 1.00269948 60317
UTC large
Height (km)
Speed (km/s)
/
Latitude / Longitude
Inclination (degrees)
Orbital Period (minutes)
Azimuth
Elevation
Range (km)
Doppler Factor

Next 0 passes for location: London (51.5072 / 0.1276)

Sorry there are no passes over London.